• In Hungary
  • List of Countries
  • For 7 days
  • Water Temperature
  • Satellite Maps
  • Weather Map
  • News
  • Weather Widgets
  • user-avatar
    Login

    Hourly Weather Gorma

    Today, 24 September, Monday

    Time Temperature Precipitation Wind Pressure Humidity
    00:00 +7°C° 0 mm 3 mps 734 mmHg 92%
    01:00 +7°C° 0 mm 3 mps 734 mmHg 93%
    02:00 +6°C° 0 mm 2 mps 734 mmHg 97%
    03:00 +6°C° 0 mm 2 mps 734 mmHg 97%
    04:00 +5°C° 0 mm 2 mps 734 mmHg 97%
    05:00 +5°C° 0 mm 2 mps 734 mmHg 97%
    06:00 +6°C° 0 mm 2 mps 734 mmHg 94%
    07:00 +7°C° 0 mm 2 mps 734 mmHg 91%
    08:00 +8°C° 0 mm 2 mps 734 mmHg 88%
    09:00 +9°C° 0 mm 2 mps 734 mmHg 82%
    10:00 +10°C° 0 mm 2 mps 734 mmHg 76%
    11:00 +12°C° 0 mm 3 mps 734 mmHg 69%
    12:00 +11°C° 0.7 mm 3 mps 733 mmHg 76%
    13:00 +10°C° 0.7 mm 3 mps 733 mmHg 82%
    14:00 +9°C° 0.7 mm 3 mps 732 mmHg 88%
    15:00 +9°C° 1 mm 3 mps 732 mmHg 90%
    16:00 +8°C° 1 mm 3 mps 731 mmHg 92%
    17:00 +8°C° 1 mm 3 mps 730 mmHg 94%
    18:00 +8°C° 1.2 mm 3 mps 729 mmHg 94%
    19:00 +7°C° 1.2 mm 3 mps 728 mmHg 94%
    20:00 +6°C° 1.2 mm 4 mps 727 mmHg 94%
    21:00 +6°C° 2.1 mm 4 mps 727 mmHg 94%
    22:00 +6°C° 2.1 mm 4 mps 726 mmHg 94%
    23:00 +6°C° 2.1 mm 4 mps 725 mmHg 95%

    Tomorrow, 25 September, Tuesday

    Time Temperature Precipitation Wind Pressure Humidity
    00:00 +6°C° 1.8 mm 4 mps 725 mmHg 94%
    01:00 +6°C° 1.8 mm 5 mps 725 mmHg 94%
    02:00 +6°C° 1.8 mm 5 mps 725 mmHg 94%
    03:00 +6°C° 1.4 mm 5 mps 725 mmHg 93%
    04:00 +5°C° 1.4 mm 6 mps 725 mmHg 93%
    05:00 +5°C° 1.4 mm 6 mps 725 mmHg 92%
    06:00 +5°C° 0.7 mm 6 mps 726 mmHg 91%
    07:00 +5°C° 0.7 mm 7 mps 727 mmHg 90%
    08:00 +5°C° 0.7 mm 7 mps 728 mmHg 88%
    09:00 +5°C° 0.6 mm 7 mps 728 mmHg 87%
    10:00 +5°C° 0.6 mm 7 mps 729 mmHg 87%
    11:00 +5°C° 0.6 mm 7 mps 730 mmHg 86%
    12:00 +5°C° 0.4 mm 7 mps 731 mmHg 83%
    13:00 +5°C° 0.4 mm 7 mps 732 mmHg 81%
    14:00 +5°C° 0.4 mm 7 mps 733 mmHg 79%
    15:00 +5°C° 0.2 mm 6 mps 733 mmHg 79%
    16:00 +5°C° 0.2 mm 6 mps 734 mmHg 78%
    17:00 +5°C° 0.2 mm 6 mps 735 mmHg 78%
    18:00 +4°C° 0 mm 6 mps 736 mmHg 77%
    19:00 +3°C° 0 mm 6 mps 737 mmHg 77%
    20:00 +3°C° 0 mm 6 mps 738 mmHg 76%
    21:00 +2°C° 0 mm 5 mps 739 mmHg 75%
    22:00 +2°C° 0 mm 5 mps 739 mmHg 73%
    23:00 +1°C° 0 mm 5 mps 740 mmHg 71%

    Day after tomorrow, 26 September, Wednesday

    Time Temperature Precipitation Wind Pressure Humidity
    00:00 +1°C° 0 mm 5 mps 741 mmHg 71%
    01:00 0°C° 0 mm 4 mps 742 mmHg 71%
    02:00 -1°C° 0 mm 4 mps 742 mmHg 71%
    03:00 -1°C° 0 mm 4 mps 743 mmHg 73%
    04:00 -1°C° 0 mm 4 mps 743 mmHg 75%
    05:00 0°C° 0 mm 3 mps 744 mmHg 77%
    06:00 +1°C° 0 mm 3 mps 744 mmHg 74%
    07:00 +2°C° 0 mm 3 mps 744 mmHg 72%
    08:00 +3°C° 0 mm 4 mps 744 mmHg 69%
    09:00 +4°C° 0 mm 4 mps 744 mmHg 67%
    10:00 +6°C° 0 mm 4 mps 744 mmHg 64%
    11:00 +8°C° 0 mm 4 mps 744 mmHg 62%
    12:00 +8°C° 0 mm 4 mps 744 mmHg 61%
    13:00 +10°C° 0 mm 4 mps 743 mmHg 60%
    14:00 +10°C° 0 mm 4 mps 743 mmHg 59%
    15:00 +10°C° 0 mm 4 mps 742 mmHg 61%
    16:00 +8°C° 0 mm 4 mps 741 mmHg 63%
    17:00 +7°C° 0 mm 4 mps 740 mmHg 65%
    18:00 +7°C° 0.5 mm 5 mps 739 mmHg 71%
    19:00 +5°C° 0.5 mm 6 mps 738 mmHg 77%
    20:00 +5°C° 0.5 mm 6 mps 737 mmHg 83%
    21:00 +4°C° 1.3 mm 6 mps 735 mmHg 85%
    22:00 +4°C° 1.3 mm 7 mps 734 mmHg 86%
    23:00 +4°C° 1.3 mm 7 mps 733 mmHg 88%

    27 September, Thursday

    Time Temperature Precipitation Wind Pressure Humidity
    00:00 +4°C° 1 mm 6 mps 732 mmHg 89%
    01:00 +4°C° 1 mm 6 mps 732 mmHg 89%
    02:00 +5°C° 1 mm 6 mps 731 mmHg 90%
    03:00 +5°C° 0.3 mm 5 mps 731 mmHg 90%
    04:00 +5°C° 0.3 mm 4 mps 731 mmHg 89%
    05:00 +5°C° 0.3 mm 4 mps 731 mmHg 89%
    06:00 +5°C° 0 mm 4 mps 731 mmHg 87%
    07:00 +6°C° 0 mm 5 mps 731 mmHg 84%
    08:00 +6°C° 0 mm 5 mps 731 mmHg 82%
    09:00 +6°C° 0.3 mm 5 mps 731 mmHg 79%
    10:00 +7°C° 0.3 mm 6 mps 731 mmHg 76%
    11:00 +7°C° 0.3 mm 6 mps 731 mmHg 73%
    12:00 +8°C° 0.3 mm 6 mps 731 mmHg 71%
    13:00 +8°C° 0.3 mm 6 mps 731 mmHg 69%
    14:00 +8°C° 0.3 mm 6 mps 731 mmHg 67%
    15:00 +7°C° 0.1 mm 5 mps 732 mmHg 70%
    16:00 +7°C° 0.1 mm 4 mps 732 mmHg 73%
    17:00 +7°C° 0.1 mm 3 mps 732 mmHg 76%
    18:00 +5°C° 0 mm 3 mps 732 mmHg 78%
    19:00 +5°C° 0 mm 3 mps 733 mmHg 80%
    20:00 +4°C° 0 mm 3 mps 733 mmHg 82%
    21:00 +4°C° 0 mm 3 mps 733 mmHg 83%
    22:00 +3°C° 0 mm 3 mps 734 mmHg 84%
    23:00 +3°C° 0 mm 3 mps 734 mmHg 85%

    28 September, Friday

    Time Temperature Precipitation Wind Pressure Humidity
    00:00 +3°C° 0 mm 3 mps 734 mmHg 86%
    01:00 +3°C° 0 mm 3 mps 734 mmHg 87%
    02:00 +2°C° 0 mm 3 mps 735 mmHg 88%
    03:00 +2°C° 0 mm 3 mps 735 mmHg 89%
    04:00 +2°C° 0 mm 3 mps 735 mmHg 90%
    05:00 +2°C° 0 mm 3 mps 735 mmHg 92%
    06:00 +2°C° 0 mm 3 mps 734 mmHg 90%
    07:00 +4°C° 0 mm 2 mps 734 mmHg 89%
    08:00 +4°C° 0 mm 2 mps 734 mmHg 87%
    09:00 +5°C° 0.6 mm 2 mps 733 mmHg 87%
    10:00 +5°C° 0.6 mm 2 mps 733 mmHg 88%
    11:00 +5°C° 0.6 mm 2 mps 732 mmHg 88%
    12:00 +5°C° 1.5 mm 2 mps 731 mmHg 89%
    13:00 +5°C° 1.5 mm 2 mps 730 mmHg 90%
    14:00 +4°C° 1.5 mm 2 mps 730 mmHg 91%
    15:00 +4°C° 0.4 mm 2 mps 730 mmHg 91%
    16:00 +4°C° 0.4 mm 2 mps 730 mmHg 91%
    17:00 +4°C° 0.4 mm 2 mps 730 mmHg 91%
    18:00 +4°C° 0.1 mm 2 mps 731 mmHg 91%
    19:00 +4°C° 0.1 mm 2 mps 732 mmHg 91%
    20:00 +4°C° 0.1 mm 2 mps 733 mmHg 92%
    21:00 +3°C° 0 mm 2 mps 734 mmHg 92%
    22:00 +2°C° 0 mm 2 mps 734 mmHg 92%
    23:00 +2°C° 0 mm 2 mps 735 mmHg 93%

    29 September, Saturday

    Time Temperature Precipitation Wind Pressure Humidity
    00:00 +1°C° 0 mm 2 mps 736 mmHg 93%
    01:00 +1°C° 0 mm 2 mps 737 mmHg 93%
    02:00 -1°C° 0 mm 2 mps 737 mmHg 93%
    03:00 -1°C° 0 mm 2 mps 738 mmHg 93%
    04:00 -2°C° 0 mm 2 mps 738 mmHg 93%
    05:00 -2°C° 0 mm 2 mps 739 mmHg 93%
    06:00 -1°C° 0 mm 2 mps 740 mmHg 89%
    07:00 +1°C° 0 mm 2 mps 740 mmHg 85%
    08:00 +2°C° 0 mm 2 mps 741 mmHg 82%
    09:00 +3°C° 0 mm 2 mps 742 mmHg 76%
    10:00 +3°C° 0 mm 3 mps 742 mmHg 70%
    11:00 +5°C° 0 mm 3 mps 743 mmHg 65%
    12:00 +5°C° 0 mm 3 mps 743 mmHg 62%
    13:00 +5°C° 0 mm 3 mps 743 mmHg 59%
    14:00 +6°C° 0 mm 4 mps 744 mmHg 55%
    15:00 +4°C° 0 mm 3 mps 744 mmHg 61%
    16:00 +3°C° 0 mm 3 mps 744 mmHg 66%
    17:00 +3°C° 0 mm 2 mps 745 mmHg 71%
    18:00 +2°C° 0 mm 2 mps 745 mmHg 75%
    19:00 +2°C° 0 mm 2 mps 746 mmHg 80%
    20:00 +1°C° 0 mm 2 mps 747 mmHg 84%
    21:00 -1°C° 0 mm 2 mps 747 mmHg 85%
    22:00 -1°C° 0 mm 2 mps 748 mmHg 87%
    23:00 -2°C° 0 mm 2 mps 748 mmHg 88%
    Show more